,,,PA_Meas_PMT16A,,PR_Meas_QMR101_102,,RH_Meas_QMH101,,SR_Meas_QMS101,,TA_Meas_QMH101,,GenWind,,GenWind,
date,time,status,PA,status,PR,status,RH,status,SR,status,TA,status,DirAvg,status,SpdAvg,
2011-03-30, 00:00:04,VALID,1003.67,VALID,0,VALID,99.7781,VALID,0,VALID,25.6895,VALID,244,VALID,0.520703,
2011-03-30, 00:01:04,VALID,1003.68,VALID,0,VALID,99.6408,VALID,0,VALID,25.6097,VALID,226,VALID,0.910156,
2011-03-30, 00:02:04,VALID,1003.69,VALID,0,VALID,99.8849,VALID,0,VALID,25.5318,VALID,247,VALID,0.719922,
2011-03-30, 00:03:04,VALID,1003.67,VALID,0,VALID,101.289,VALID,0,VALID,25.4558,VALID,221,VALID,0.713281,
2011-03-30, 00:04:04,VALID,1003.64,VALID,0,VALID,102.624,VALID,0,VALID,25.3565,VALID,251,VALID,0.929688,
2011-03-30, 00:05:04,VALID,1003.63,VALID,0,VALID,104,VALID,0,VALID,25.2786,VALID,153,VALID,0.611719,
2011-03-30, 00:06:04,VALID,1003.61,VALID,0,INVALID,112.228,VALID,0,VALID,25.1813,VALID,146,VALID,1.15977,
2011-03-30, 00:07:04,VALID,1003.61,VALID,0,INVALID,116.318,VALID,0,VALID,25.1248,VALID,172,VALID,1.25977,
2011-03-30, 00:08:04,VALID,1003.56,VALID,0,INVALID,145.277,VALID,0,VALID,25.045,VALID,167,VALID,1.12852,
2011-03-30, 00:09:04,VALID,1003.52,VALID,0,INVALID,163.601,VALID,0,VALID,24.9866,VALID,162,VALID,1.63633,
2011-03-30, 00:10:04,VALID,1003.44,VALID,0,INVALID,163.647,VALID,0,VALID,24.9068,VALID,209,VALID,1.40859,
2011-03-30, 00:11:04,VALID,1003.39,VALID,0,INVALID,163.655,VALID,0,VALID,24.8697,VALID,169,VALID,1.40195,
2011-03-30, 00:12:04,VALID,1003.35,VALID,0,INVALID,163.678,VALID,0,VALID,24.8522,VALID,188,VALID,0.492969,
2011-03-30, 00:13:04,VALID,1003.3,VALID,0,INVALID,163.678,VALID,0,VALID,24.7919,VALID,208,VALID,0.367578,
2011-03-30, 00:14:04,VALID,1003.29,VALID,0,INVALID,163.655,VALID,0,VALID,24.751,VALID,209,VALID,0.676953,
2011-03-30, 00:15:04,VALID,1003.3,VALID,0,INVALID,163.685,VALID,0,VALID,24.7335,VALID,244,VALID,0.904297,
2011-03-30, 00:16:04,VALID,1003.27,VALID,0,INVALID,163.678,VALID,0,VALID,24.7335,VALID,269,VALID,0.780469,
2011-03-30, 00:17:04,VALID,1003.21,VALID,0,INVALID,163.678,VALID,0,VALID,24.7743,VALID,222,VALID,0.561719,
2011-03-30, 00:18:04,VALID,1003.17,VALID,0,INVALID,163.67,VALID,0,VALID,24.7724,VALID,240,VALID,0.499219,
2011-03-30, 00:19:04,VALID,1003.1,VALID,0,INVALID,163.67,VALID,0,VALID,24.7919,VALID,286,VALID,0.611719,
2011-03-30, 00:20:04,VALID,1003.01,VALID,0,INVALID,163.662,VALID,0.100563,VALID,24.751,VALID,279,VALID,0.177734,
2011-03-30, 00:21:04,VALID,1002.99,VALID,0,INVALID,163.662,VALID,0,VALID,24.7529,VALID,325,VALID,0.602344,
2011-03-30, 00:22:04,VALID,1002.95,VALID,0,INVALID,163.701,VALID,0,VALID,24.7316,VALID,340,VALID,0.853125,
2011-03-30, 00:23:04,VALID,1002.95,VALID,0,INVALID,163.67,VALID,0,VALID,24.7529,VALID,355,VALID,0.991406,
2011-03-30, 00:24:04,VALID,1002.97,VALID,0,INVALID,163.701,VALID,0,VALID,24.7529,VALID,6,VALID,0.6625,
2011-03-30, 00:25:04,VALID,1002.96,VALID,0,INVALID,163.701,VALID,0,VALID,24.7724,VALID,260,VALID,0.480859,
2011-03-30, 00:26:04,VALID,1003,VALID,0,INVALID,163.655,VALID,0,VALID,24.7724,VALID,209,VALID,0.883594,
2011-03-30, 00:27:04,VALID,1003,VALID,0,INVALID,163.685,VALID,0,VALID,24.7724,VALID,188,VALID,0.655859,
2011-03-30, 00:28:04,VALID,1003.03,VALID,0,INVALID,163.662,VALID,0,VALID,24.7529,VALID,189,VALID,0.496094,
2011-03-30, 00:29:04,VALID,1003.06,VALID,0,INVALID,163.701,VALID,0,VALID,24.7353,VALID,189,VALID,0.393359,
2011-03-30, 00:30:04,VALID,1003.1,VALID,0,INVALID,163.701,VALID,0,VALID,24.7159,VALID,190,VALID,0.555078,
2011-03-30, 00:31:04,VALID,1003.07,VALID,0,INVALID,163.685,VALID,0,VALID,24.6769,VALID,205,VALID,0.464453,
2011-03-30, 00:32:04,VALID,1003.02,VALID,0,INVALID,163.701,VALID,0,VALID,24.6964,VALID,176,VALID,0.934375,
2011-03-30, 00:33:04,VALID,1003.03,VALID,0,INVALID,163.678,VALID,0,VALID,24.675,VALID,179,VALID,0.457031,
2011-03-30, 00:34:04,VALID,1003.04,VALID,0,INVALID,163.685,VALID,0,VALID,24.6574,VALID,255,VALID,0.6625,
2011-03-30, 00:35:04,VALID,1003.07,VALID,0,INVALID,163.67,VALID,0,VALID,24.6964,VALID,322,VALID,0.524609,
2011-03-30, 00:36:04,VALID,1003.03,VALID,0,INVALID,163.685,VALID,0,VALID,24.6964,VALID,206,VALID,0.409766,
2011-03-30, 00:37:04,VALID,1003.04,VALID,0,INVALID,163.647,VALID,0,VALID,24.6964,VALID,244,VALID,0.562109,
2011-03-30, 00:38:04,VALID,1003.07,VALID,0,INVALID,163.67,VALID,0,VALID,24.6964,VALID,255,VALID,0.376563,
2011-03-30, 00:39:04,VALID,1003.09,VALID,0,INVALID,163.678,VALID,0,VALID,24.675,VALID,236,VALID,0.525781,
2011-03-30, 00:40:04,VALID,1003.09,VALID,0,INVALID,163.67,VALID,0,VALID,24.6945,VALID,277,VALID,0.715625,
2011-03-30, 00:41:04,VALID,1003.06,VALID,0,INVALID,163.662,VALID,0,VALID,24.7159,VALID,291,VALID,0.819531,
2011-03-30, 00:42:04,VALID,1003.05,VALID,0,INVALID,163.662,VALID,0,VALID,24.6945,VALID,284,VALID,0.746875,
2011-03-30, 00:43:04,VALID,1003.09,VALID,0,INVALID,163.693,VALID,0,VALID,24.7548,VALID,294,VALID,0.090625,
2011-03-30, 00:44:04,VALID,1003.13,VALID,0,INVALID,163.678,VALID,0.100563,VALID,24.7724,VALID,262,VALID,0.263281,
2011-03-30, 00:45:04,VALID,1003.1,VALID,0,INVALID,163.678,VALID,0.100563,VALID,24.7316,VALID,242,VALID,0.4125,
2011-03-30, 00:46:04,VALID,1003.13,VALID,0,INVALID,163.639,VALID,0,VALID,24.7529,VALID,230,VALID,0.533984,
2011-03-30, 00:47:04,VALID,1003.12,VALID,0,INVALID,163.67,VALID,0.100563,VALID,24.7529,VALID,203,VALID,0.829687,
2011-03-30, 00:48:04,VALID,1003.15,VALID,0,INVALID,163.662,VALID,0.100563,VALID,24.7121,VALID,182,VALID,0.778516,
2011-03-30, 00:49:04,VALID,1003.19,VALID,0,INVALID,163.685,VALID,0.100563,VALID,24.6945,VALID,189,VALID,0.864453,
2011-03-30, 00:50:04,VALID,1003.19,VALID,0,INVALID,163.693,VALID,0.100563,VALID,24.6537,VALID,192,VALID,0.671484,
2011-03-30, 00:51:04,VALID,1003.17,VALID,0,INVALID,163.655,VALID,0.100563,VALID,24.6537,VALID,193,VALID,0.345703,
2011-03-30, 00:52:04,VALID,1003.18,VALID,0,INVALID,163.662,VALID,0,VALID,24.6537,VALID,193,VALID,0.0367187,
2011-03-30, 00:53:04,VALID,1003.14,VALID,0,INVALID,163.701,VALID,0.100563,VALID,24.6342,VALID,193,VALID,0.108984,
2011-03-30, 00:54:04,VALID,1003.13,VALID,0,INVALID,163.67,VALID,0.100563,VALID,24.6342,VALID,181,VALID,0.275391,
2011-03-30, 00:55:04,VALID,1003.11,VALID,0,INVALID,163.693,VALID,0.100563,VALID,24.6342,VALID,180,VALID,0.188672,
2011-03-30, 00:56:04,VALID,1003.05,VALID,0,INVALID,163.693,VALID,0,VALID,24.6361,VALID,294,VALID,0.367188,
2011-03-30, 00:57:04,VALID,1003.05,VALID,0,INVALID,163.678,VALID,0,VALID,24.6342,VALID,294,VALID,0.114844,
2011-03-30, 00:58:04,VALID,1003.02,VALID,0,INVALID,163.685,VALID,0.100563,VALID,24.6556,VALID,288,VALID,0.346484,
2011-03-30, 00:59:04,VALID,1003.01,VALID,0,INVALID,163.685,VALID,0,VALID,24.6556,VALID,291,VALID,0.560156,
2011-03-30, 01:00:04,VALID,1002.99,VALID,0,INVALID,163.662,VALID,0,VALID,24.675,VALID,291,VALID,0.153906,
2011-03-30, 01:01:04,VALID,1002.96,VALID,0,INVALID,163.701,VALID,0,VALID,24.675,VALID,293,VALID,0.327734,
2011-03-30, 01:02:04,VALID,1002.96,VALID,0,INVALID,163.685,VALID,0,VALID,24.6769,VALID,296,VALID,0.262891,
2011-03-30, 01:03:04,VALID,1002.93,VALID,0,INVALID,163.701,VALID,0,VALID,24.6964,VALID,296,VALID,0.00585938,
2011-03-30, 01:04:04,VALID,1002.95,VALID,0,INVALID,163.693,VALID,0,VALID,24.6361,VALID,301,VALID,1.03672,
2011-03-30, 01:05:04,VALID,1002.92,VALID,0,INVALID,163.678,VALID,0,VALID,24.6574,VALID,303,VALID,0.476172,
2011-03-30, 01:06:04,VALID,1002.88,VALID,0,INVALID,163.67,VALID,0,VALID,24.6556,VALID,297,VALID,0.75625,
2011-03-30, 01:07:04,VALID,1002.84,VALID,0,INVALID,163.685,VALID,0,VALID,24.6964,VALID,297,VALID,0.415625,
2011-03-30, 01:08:04,VALID,1002.79,VALID,0,INVALID,163.685,VALID,0,VALID,24.7159,VALID,297,VALID,0.0644531,
2011-03-30, 01:09:04,VALID,1002.75,VALID,0,INVALID,163.678,VALID,0,VALID,24.675,VALID,297,VALID,0.530859,
2011-03-30, 01:10:04,VALID,1002.73,VALID,0,INVALID,163.685,VALID,0,VALID,24.675,VALID,297,VALID,0.373437,
2011-03-30, 01:11:04,VALID,1002.69,VALID,0,INVALID,163.685,VALID,0,VALID,24.675,VALID,297,VALID,0.766016,
2011-03-30, 01:12:04,VALID,1002.7,VALID,0,INVALID,163.67,VALID,0,VALID,24.6964,VALID,239,VALID,0.467969,
2011-03-30, 01:13:04,VALID,1002.7,VALID,0,INVALID,163.685,VALID,0,VALID,24.675,VALID,340,VALID,0.23125,
2011-03-30, 01:14:04,VALID,1002.69,VALID,0,INVALID,163.685,VALID,0,VALID,24.675,VALID,340,VALID,0.339844,
2011-03-30, 01:15:04,VALID,1002.64,VALID,0,INVALID,163.693,VALID,0,VALID,24.6964,VALID,313,VALID,0.233594,
2011-03-30, 01:16:04,VALID,1002.63,VALID,0,INVALID,163.693,VALID,0,VALID,24.6574,VALID,331,VALID,0.317187,
2011-03-30, 01:17:04,VALID,1002.62,VALID,0,INVALID,163.67,VALID,0,VALID,24.6166,VALID,4,VALID,0.499609,
2011-03-30, 01:18:04,VALID,1002.59,VALID,0,INVALID,163.693,VALID,0,VALID,24.638,VALID,16,VALID,0.480469,
2011-03-30, 01:19:04,VALID,1002.59,VALID,0,INVALID,163.678,VALID,0,VALID,24.5972,VALID,327,VALID,0.167969,
2011-03-30, 01:20:04,VALID,1002.58,VALID,0,INVALID,163.685,VALID,0,VALID,24.6185,VALID,327,VALID,0.0257812,
2011-03-30, 01:21:04,VALID,1002.54,VALID,0,INVALID,163.685,VALID,0,VALID,24.6185,VALID,333,VALID,0.650781,
2011-03-30, 01:22:04,VALID,1002.55,VALID,0,INVALID,163.685,VALID,0,VALID,24.599,VALID,346,VALID,0.669922,
2011-03-30, 01:23:04,VALID,1002.54,VALID,0,INVALID,163.685,VALID,0,VALID,24.5582,VALID,342,VALID,0.148047,
2011-03-30, 01:24:04,VALID,1002.52,VALID,0,INVALID,163.716,VALID,0,VALID,24.5369,VALID,342,VALID,0,
2011-03-30, 01:25:04,VALID,1002.57,VALID,0,INVALID,163.678,VALID,0,VALID,24.5601,VALID,293,VALID,0.854297,
2011-03-30, 01:26:04,VALID,1002.58,VALID,0,INVALID,163.685,VALID,0,VALID,24.5406,VALID,336,VALID,0.323047,
2011-03-30, 01:27:04,VALID,1002.56,VALID,0,INVALID,163.685,VALID,0,VALID,24.5406,VALID,300,VALID,0.295703,
2011-03-30, 01:28:04,VALID,1002.58,VALID,0,INVALID,163.701,VALID,0,VALID,24.5406,VALID,293,VALID,0.0515625,
2011-03-30, 01:29:04,VALID,1002.57,VALID,0,INVALID,163.731,VALID,0,VALID,24.4998,VALID,293,VALID,0.219922,
2011-03-30, 01:30:04,VALID,1002.56,VALID,0,INVALID,163.723,VALID,0,VALID,24.4998,VALID,319,VALID,0.357812,
2011-03-30, 01:31:04,VALID,1002.5,VALID,0,INVALID,163.655,VALID,0,VALID,24.5017,VALID,357,VALID,1.00937,
2011-03-30, 01:32:04,VALID,1002.5,VALID,0,INVALID,163.685,VALID,0,VALID,24.4609,VALID,334,VALID,0.613281,
2011-03-30, 01:33:04,VALID,1002.5,VALID,0,INVALID,163.693,VALID,0,VALID,24.422,VALID,349,VALID,0.673437,
2011-03-30, 01:34:04,VALID,1002.49,VALID,0,INVALID,163.701,VALID,0,VALID,24.4025,VALID,356,VALID,0.513672,
2011-03-30, 01:35:04,VALID,1002.5,VALID,0,INVALID,163.731,VALID,0,VALID,24.3636,VALID,358,VALID,0.454688,
2011-03-30, 01:36:04,VALID,1002.51,VALID,0,INVALID,163.723,VALID,0,VALID,24.3441,VALID,349,VALID,0.589063,
2011-03-30, 01:37:04,VALID,1002.52,VALID,0,INVALID,163.708,VALID,0,VALID,24.3246,VALID,357,VALID,0.357031,
2011-03-30, 01:38:04,VALID,1002.5,VALID,0,INVALID,163.708,VALID,0,VALID,24.2857,VALID,355,VALID,0.698438,
2011-03-30, 01:39:04,VALID,1002.51,VALID,0,INVALID,163.708,VALID,0,VALID,24.2857,VALID,358,VALID,0.558594,
2011-03-30, 01:40:04,VALID,1002.52,VALID,0,INVALID,163.746,VALID,0,VALID,24.2857,VALID,358,VALID,0.409766,
2011-03-30, 01:41:04,VALID,1002.54,VALID,0,INVALID,163.723,VALID,0,VALID,24.2662,VALID,2,VALID,0.507031,
2011-03-30, 01:42:04,VALID,1002.58,VALID,0,INVALID,163.731,VALID,0,VALID,24.2486,VALID,5,VALID,0.568359,
2011-03-30, 01:43:04,VALID,1002.56,VALID,0,INVALID,163.716,VALID,0,VALID,24.2681,VALID,5,VALID,0.55,
2011-03-30, 01:44:04,VALID,1002.58,VALID,0,INVALID,163.731,VALID,0,VALID,24.2486,VALID,5,VALID,0.485156,
2011-03-30, 01:45:04,VALID,1002.55,VALID,0,INVALID,163.731,VALID,0,VALID,24.2273,VALID,7,VALID,0.555078,
2011-03-30, 01:46:04,VALID,1002.56,VALID,0,INVALID,163.746,VALID,0,VALID,24.2097,VALID,8,VALID,0.541406,
2011-03-30, 01:47:04,VALID,1002.6,VALID,0,INVALID,163.685,VALID,0,VALID,24.1884,VALID,8,VALID,0.596875,
2011-03-30, 01:48:04,VALID,1002.58,VALID,0,INVALID,163.701,VALID,0,VALID,24.1902,VALID,8,VALID,0.651563,
2011-03-30, 01:49:04,VALID,1002.59,VALID,0,INVALID,163.716,VALID,0,VALID,24.1707,VALID,8,VALID,0.523438,
2011-03-30, 01:50:04,VALID,1002.65,VALID,0,INVALID,163.708,VALID,0,VALID,24.1689,VALID,8,VALID,0.414453,
2011-03-30, 01:51:04,VALID,1002.64,VALID,0,INVALID,163.754,VALID,0,VALID,24.1689,VALID,8,VALID,0.228125,
2011-03-30, 01:52:04,VALID,1002.66,VALID,0,INVALID,163.746,VALID,0,VALID,24.1494,VALID,8,VALID,0.125781,
2011-03-30, 01:53:04,VALID,1002.68,VALID,0,INVALID,163.716,VALID,0,VALID,24.13,VALID,8,VALID,0.258984,
2011-03-30, 01:54:04,VALID,1002.68,VALID,0,INVALID,163.746,VALID,0,VALID,24.1513,VALID,8,VALID,0,
2011-03-30, 01:55:04,VALID,1002.67,VALID,0,INVALID,163.723,VALID,0,VALID,24.1707,VALID,8,VALID,0.003125,
2011-03-30, 01:56:04,VALID,1002.7,VALID,0,INVALID,163.708,VALID,0,VALID,24.2097,VALID,8,VALID,0.424219,
2011-03-30, 01:57:04,VALID,1002.65,VALID,0,INVALID,163.731,VALID,0,VALID,24.1689,VALID,8,VALID,0.264453,
2011-03-30, 01:58:04,VALID,1002.68,VALID,0,INVALID,163.739,VALID,0,VALID,24.1902,VALID,8,VALID,0.128125,
2011-03-30, 01:59:04,VALID,1002.68,VALID,0,INVALID,163.716,VALID,0,VALID,24.1689,VALID,8,VALID,0,
2011-03-30, 02:00:04,VALID,1002.66,VALID,0,INVALID,163.731,VALID,0,VALID,24.1884,VALID,8,VALID,0,
2011-03-30, 02:01:04,VALID,1002.66,VALID,0,INVALID,163.731,VALID,0,VALID,24.1671,VALID,8,VALID,0,
2011-03-30, 02:02:04,VALID,1002.69,VALID,0,INVALID,163.708,VALID,0,VALID,24.1689,VALID,8,VALID,0.110156,
2011-03-30, 02:03:04,VALID,1002.66,VALID,0,INVALID,163.708,VALID,0,VALID,24.1884,VALID,8,VALID,0.186719,
2011-03-30, 02:04:04,VALID,1002.64,VALID,0,INVALID,163.716,VALID,0,VALID,24.2078,VALID,8,VALID,0.325781,
2011-03-30, 02:05:04,VALID,1002.61,VALID,0,INVALID,163.739,VALID,0,VALID,24.1689,VALID,8,VALID,0.410156,
2011-03-30, 02:06:04,VALID,1002.63,VALID,0,INVALID,163.723,VALID,0,VALID,24.1689,VALID,8,VALID,0.496094,
2011-03-30, 02:07:04,VALID,1002.63,VALID,0,INVALID,163.723,VALID,0,VALID,24.13,VALID,8,VALID,0.346484,
2011-03-30, 02:08:04,VALID,1002.64,VALID,0,INVALID,163.716,VALID,0,VALID,24.1087,VALID,8,VALID,0.2125,
2011-03-30, 02:09:04,VALID,1002.61,VALID,0,INVALID,163.754,VALID,0,VALID,24.1105,VALID,8,VALID,0.33125,
2011-03-30, 02:10:04,VALID,1002.63,VALID,0,INVALID,163.739,VALID,0,VALID,24.1123,VALID,8,VALID,0.213672,
2011-03-30, 02:11:04,VALID,1002.65,VALID,0,INVALID,163.739,VALID,0,VALID,24.1123,VALID,8,VALID,0.110937,
2011-03-30, 02:12:04,VALID,1002.64,VALID,0,INVALID,163.746,VALID,0,VALID,24.091,VALID,8,VALID,0.0015625,
2011-03-30, 02:13:04,VALID,1002.69,VALID,0,INVALID,163.723,VALID,0,VALID,24.091,VALID,360,VALID,0.384375,
2011-03-30, 02:14:04,VALID,1002.68,VALID,0,INVALID,163.701,VALID,0,VALID,24.0716,VALID,297,VALID,0.550391,
2011-03-30, 02:15:04,VALID,1002.7,VALID,0,INVALID,163.716,VALID,0,VALID,24.0716,VALID,297,VALID,0.192969,
2011-03-30, 02:16:04,VALID,1002.7,VALID,0,INVALID,163.739,VALID,0,VALID,24.1513,VALID,297,VALID,0.303906,
2011-03-30, 02:17:04,VALID,1002.69,VALID,0,INVALID,163.716,VALID,0,VALID,24.13,VALID,338,VALID,0.507422,
2011-03-30, 02:18:04,VALID,1002.67,VALID,0,INVALID,163.716,VALID,0,VALID,24.1707,VALID,341,VALID,0.617969,
2011-03-30, 02:19:04,VALID,1002.68,VALID,0,INVALID,163.701,VALID,0,VALID,24.1902,VALID,348,VALID,0.551172,
2011-03-30, 02:20:04,VALID,1002.67,VALID,0,INVALID,163.708,VALID,0,VALID,24.1281,VALID,348,VALID,0.460938,
2011-03-30, 02:21:04,VALID,1002.61,VALID,0,INVALID,163.746,VALID,0,VALID,24.1087,VALID,349,VALID,0.470313,
2011-03-30, 02:22:04,VALID,1002.62,VALID,0,INVALID,163.746,VALID,0,VALID,24.091,VALID,349,VALID,0.524609,
2011-03-30, 02:23:04,VALID,1002.62,VALID,0,INVALID,163.739,VALID,0,VALID,24.091,VALID,346,VALID,0.636719,
2011-03-30, 02:24:04,VALID,1002.64,VALID,0,INVALID,163.739,VALID,0,VALID,24.0716,VALID,344,VALID,0.330469,
2011-03-30, 02:25:04,VALID,1002.6,VALID,0,INVALID,163.731,VALID,0,VALID,24.0929,VALID,344,VALID,0.405469,
2011-03-30, 02:26:04,VALID,1002.62,VALID,0,INVALID,163.716,VALID,0,VALID,24.0521,VALID,359,VALID,0.651953,
2011-03-30, 02:27:04,VALID,1002.62,VALID,0,INVALID,163.716,VALID,0,VALID,24.0734,VALID,359,VALID,0.430859,
2011-03-30, 02:28:04,VALID,1002.62,VALID,0,INVALID,163.716,VALID,0,VALID,24.0734,VALID,359,VALID,0.441406,
2011-03-30, 02:29:04,VALID,1002.66,VALID,0,INVALID,163.739,VALID,0,VALID,24.0326,VALID,359,VALID,0.538672,
2011-03-30, 02:30:04,VALID,1002.68,VALID,0,INVALID,163.723,VALID,0,VALID,24.0716,VALID,358,VALID,0.434375,
2011-03-30, 02:31:04,VALID,1002.69,VALID,0,INVALID,163.739,VALID,0,VALID,24.0521,VALID,358,VALID,0.449609,
2011-03-30, 02:32:04,VALID,1002.68,VALID,0,INVALID,163.731,VALID,0,VALID,24.0929,VALID,358,VALID,0.487891,
2011-03-30, 02:33:04,VALID,1002.71,VALID,0,INVALID,163.746,VALID,0,VALID,24.0521,VALID,358,VALID,0.510156,
2011-03-30, 02:34:04,VALID,1002.71,VALID,0,INVALID,163.739,VALID,0,VALID,24.0521,VALID,358,VALID,0.509766,
2011-03-30, 02:35:04,VALID,1002.71,VALID,0,INVALID,163.739,VALID,0,VALID,24.0716,VALID,358,VALID,0.325391,
2011-03-30, 02:36:04,VALID,1002.7,VALID,0,INVALID,163.762,VALID,0,VALID,24.0716,VALID,358,VALID,0.330859,
2011-03-30, 02:37:04,VALID,1002.69,VALID,0,INVALID,163.731,VALID,0,VALID,24.0716,VALID,358,VALID,0.286328,
2011-03-30, 02:38:04,VALID,1002.69,VALID,0,INVALID,163.731,VALID,0,VALID,24.091,VALID,358,VALID,0.252734,
2011-03-30, 02:39:04,VALID,1002.65,VALID,0,INVALID,163.731,VALID,0,VALID,24.0716,VALID,358,VALID,0.317969,
2011-03-30, 02:40:04,VALID,1002.64,VALID,0,INVALID,163.723,VALID,0,VALID,24.0716,VALID,358,VALID,0.450781,
2011-03-30, 02:41:04,VALID,1002.61,VALID,0,INVALID,163.746,VALID,0,VALID,24.0716,VALID,358,VALID,0.264453,
2011-03-30, 02:42:04,VALID,1002.61,VALID,0,INVALID,163.754,VALID,0,VALID,24.0521,VALID,358,VALID,0.144531,
2011-03-30, 02:43:04,VALID,1002.63,VALID,0,INVALID,163.731,VALID,0,VALID,24.0326,VALID,358,VALID,0.192188,
2011-03-30, 02:44:04,VALID,1002.58,VALID,0,INVALID,163.701,VALID,0,VALID,24.0132,VALID,358,VALID,0.0625,
2011-03-30, 02:45:04,VALID,1002.6,VALID,0,INVALID,163.739,VALID,0,VALID,23.9919,VALID,358,VALID,0.240625,
2011-03-30, 02:46:04,VALID,1002.55,VALID,0,INVALID,163.739,VALID,0,VALID,24.0132,VALID,358,VALID,0.427344,
2011-03-30, 02:47:04,VALID,1002.55,VALID,0,INVALID,163.716,VALID,0,VALID,23.9937,VALID,358,VALID,0.131641,
2011-03-30, 02:48:04,VALID,1002.56,VALID,0,INVALID,163.731,VALID,0,VALID,23.9937,VALID,358,VALID,0.0488281,
2011-03-30, 02:49:04,VALID,1002.56,VALID,0,INVALID,163.731,VALID,0,VALID,24.0326,VALID,358,VALID,0,
2011-03-30, 02:50:04,VALID,1002.59,VALID,0,INVALID,163.731,VALID,0,VALID,24.0326,VALID,358,VALID,0,
2011-03-30, 02:51:04,VALID,1002.59,VALID,0,INVALID,163.754,VALID,0,VALID,24.0326,VALID,358,VALID,0,
2011-03-30, 02:52:04,VALID,1002.6,VALID,0,INVALID,163.746,VALID,0,VALID,24.0734,VALID,358,VALID,0,
2011-03-30, 02:53:04,VALID,1002.59,VALID,0,INVALID,163.746,VALID,0,VALID,24.0521,VALID,358,VALID,0,
2011-03-30, 02:54:04,VALID,1002.59,VALID,0,INVALID,163.739,VALID,0,VALID,24.0521,VALID,358,VALID,0,
2011-03-30, 02:55:04,VALID,1002.6,VALID,0,INVALID,163.739,VALID,0,VALID,24.0326,VALID,358,VALID,0,
2011-03-30, 02:56:04,VALID,1002.59,VALID,0,INVALID,163.731,VALID,0,VALID,23.9919,VALID,358,VALID,0,
2011-03-30, 02:57:04,VALID,1002.61,VALID,0,INVALID,163.739,VALID,0,VALID,24.0132,VALID,358,VALID,0,
2011-03-30, 02:58:04,VALID,1002.61,VALID,0,INVALID,163.762,VALID,0,VALID,24.0326,VALID,358,VALID,0.348437,
2011-03-30, 02:59:04,VALID,1002.6,VALID,0,INVALID,163.739,VALID,0,VALID,24.0132,VALID,358,VALID,0.411328,
2011-03-30, 03:00:04,VALID,1002.62,VALID,0,INVALID,163.716,VALID,0,VALID,24.0345,VALID,358,VALID,0.391406,
2011-03-30, 03:01:04,VALID,1002.61,VALID,0,INVALID,163.739,VALID,0.100563,VALID,23.9937,VALID,11,VALID,0.291406,
2011-03-30, 03:02:04,VALID,1002.63,VALID,0,INVALID,163.716,VALID,0,VALID,23.9742,VALID,68,VALID,0.386328,
2011-03-30, 03:03:04,VALID,1002.64,VALID,0,INVALID,163.716,VALID,0,VALID,23.9742,VALID,68,VALID,0.282813,
2011-03-30, 03:04:04,VALID,1002.61,VALID,0,INVALID,163.746,VALID,0,VALID,23.9548,VALID,68,VALID,0.209766,
2011-03-30, 03:05:04,VALID,1002.59,VALID,0,INVALID,163.746,VALID,0,VALID,23.9548,VALID,66,VALID,0.451172,
2011-03-30, 03:06:04,VALID,1002.59,VALID,0,INVALID,163.746,VALID,0,VALID,23.9353,VALID,58,VALID,0.472656,
2011-03-30, 03:07:04,VALID,1002.58,VALID,0,INVALID,163.739,VALID,0,VALID,23.9177,VALID,58,VALID,0.324219,
2011-03-30, 03:08:04,VALID,1002.57,VALID,0,INVALID,163.746,VALID,0.100563,VALID,23.8964,VALID,58,VALID,0.173047,
2011-03-30, 03:09:04,VALID,1002.58,VALID,0,INVALID,163.754,VALID,0,VALID,23.8964,VALID,58,VALID,0.0121094,
2011-03-30, 03:10:04,VALID,1002.59,VALID,0,INVALID,163.739,VALID,0.100563,VALID,23.8769,VALID,58,VALID,0,
2011-03-30, 03:11:04,VALID,1002.59,VALID,0,INVALID,163.746,VALID,0,VALID,23.8964,VALID,58,VALID,0.00078125,
2011-03-30, 03:12:04,VALID,1002.56,VALID,0,INVALID,163.723,VALID,0,VALID,23.8362,VALID,58,VALID,0.275,
2011-03-30, 03:13:04,VALID,1002.57,VALID,0,INVALID,163.716,VALID,0,VALID,23.8982,VALID,58,VALID,0.241016,
2011-03-30, 03:14:04,VALID,1002.57,VALID,0,INVALID,163.739,VALID,0,VALID,23.8362,VALID,58,VALID,0.233203,
2011-03-30, 03:15:04,VALID,1002.54,VALID,0,INVALID,163.754,VALID,0,VALID,23.8362,VALID,58,VALID,0.165234,
2011-03-30, 03:16:04,VALID,1002.52,VALID,0,INVALID,163.723,VALID,0,VALID,23.8575,VALID,58,VALID,0.201562,
2011-03-30, 03:17:04,VALID,1002.56,VALID,0,INVALID,163.723,VALID,0,VALID,23.8362,VALID,58,VALID,0,
2011-03-30, 03:18:04,VALID,1002.54,VALID,0,INVALID,163.708,VALID,0.100563,VALID,23.8982,VALID,58,VALID,0,
2011-03-30, 03:19:04,VALID,1002.53,VALID,0,INVALID,163.739,VALID,0.100563,VALID,23.8787,VALID,58,VALID,0,
2011-03-30, 03:20:04,VALID,1002.49,VALID,0,INVALID,163.746,VALID,0,VALID,23.8167,VALID,58,VALID,0,
2011-03-30, 03:21:04,VALID,1002.49,VALID,0,INVALID,163.746,VALID,0,VALID,23.838,VALID,58,VALID,0,
2011-03-30, 03:22:04,VALID,1002.5,VALID,0,INVALID,163.723,VALID,0,VALID,23.8185,VALID,58,VALID,0,
2011-03-30, 03:23:04,VALID,1002.47,VALID,0,INVALID,163.754,VALID,0,VALID,23.7991,VALID,58,VALID,0,
2011-03-30, 03:24:04,VALID,1002.47,VALID,0,INVALID,163.708,VALID,0,VALID,23.8185,VALID,58,VALID,0,
2011-03-30, 03:25:04,VALID,1002.47,VALID,0,INVALID,163.731,VALID,0,VALID,23.8185,VALID,58,VALID,0,
2011-03-30, 03:26:04,VALID,1002.47,VALID,0,INVALID,163.762,VALID,0,VALID,23.7991,VALID,53,VALID,0.0136719,
2011-03-30, 03:27:04,VALID,1002.45,VALID,0,INVALID,163.731,VALID,0,VALID,23.7991,VALID,46,VALID,0.360938,
2011-03-30, 03:28:04,VALID,1002.48,VALID,0,INVALID,163.739,VALID,0,VALID,23.7991,VALID,46,VALID,0.330859,
2011-03-30, 03:29:04,VALID,1002.47,VALID,0,INVALID,163.746,VALID,0,VALID,23.7991,VALID,46,VALID,0.337891,
2011-03-30, 03:30:04,VALID,1002.46,VALID,0,INVALID,163.754,VALID,0,VALID,23.838,VALID,46,VALID,0.153906,
2011-03-30, 03:31:04,VALID,1002.47,VALID,0,INVALID,163.777,VALID,0,VALID,23.838,VALID,46,VALID,0.549219,
2011-03-30, 03:32:04,VALID,1002.5,VALID,0,INVALID,163.754,VALID,0,VALID,23.7973,VALID,46,VALID,0.496094,
2011-03-30, 03:33:04,VALID,1002.5,VALID,0,INVALID,163.762,VALID,0,VALID,23.7973,VALID,46,VALID,0.3625,
2011-03-30, 03:34:04,VALID,1002.54,VALID,0,INVALID,163.731,VALID,0,VALID,23.8185,VALID,46,VALID,0.305469,
2011-03-30, 03:35:04,VALID,1002.55,VALID,0,INVALID,163.746,VALID,0,VALID,23.8167,VALID,46,VALID,0.265234,
2011-03-30, 03:36:04,VALID,1002.57,VALID,0,INVALID,163.731,VALID,0,VALID,23.8185,VALID,46,VALID,0.327734,
2011-03-30, 03:37:04,VALID,1002.56,VALID,0,INVALID,163.777,VALID,0,VALID,23.8185,VALID,46,VALID,0.325,
2011-03-30, 03:38:04,VALID,1002.57,VALID,0,INVALID,163.754,VALID,0,VALID,23.8185,VALID,46,VALID,0.157813,
2011-03-30, 03:39:04,VALID,1002.57,VALID,0,INVALID,163.762,VALID,0,VALID,23.7973,VALID,46,VALID,0,
2011-03-30, 03:40:04,VALID,1002.58,VALID,0,INVALID,163.723,VALID,0,VALID,23.838,VALID,46,VALID,0,
2011-03-30, 03:41:04,VALID,1002.57,VALID,0,INVALID,163.762,VALID,0,VALID,23.8185,VALID,46,VALID,0,
2011-03-30, 03:42:04,VALID,1002.59,VALID,0,INVALID,163.731,VALID,0,VALID,23.7991,VALID,46,VALID,0.340625,